Date,TemperatureHighF,TemperatureAvgF,TemperatureLowF,DewpointHighF,DewpointAvgF,DewpointLowF,HumidityHigh,HumidityAvg,HumidityLow,PressureMaxIn,PressureMinIn,WindSpeedMaxMPH,WindSpeedAvgMPH,GustSpeedMaxMPH,PrecipitationSumIn
2013-4-1,66.0,50.5,36.0,26.0,15.3,5.0,51,28,9,0.00,40.00,10,5,22,0.00
2013-4-2,61.0,46.9,31.0,23.0,12.9,5.0,51,27,11,0.00,40.00,12,5,27,0.00
2013-4-3,55.0,42.6,33.0,29.0,24.5,18.0,72,51,23,0.00,40.00,12,5,21,0.00
2013-4-4,67.0,46.3,28.0,27.0,18.1,4.0,78,40,10,0.00,40.00,7,4,16,0.00
2013-4-5,69.0,52.3,37.0,19.0,13.7,10.0,36,24,11,0.00,40.00,13,6,32,0.00
2013-4-6,66.0,51.6,35.0,29.0,20.4,16.0,63,32,16,0.00,40.00,12,6,25,0.00
2013-4-7,67.0,53.8,39.0,27.0,18.1,10.0,51,27,12,0.00,40.00,13,6,37,0.00
2013-4-8,67.0,52.2,35.0,25.0,16.8,10.0,45,26,13,0.00,40.00,19,8,38,0.00
2013-4-9,52.0,40.9,32.0,31.0,23.4,11.0,88,53,22,0.00,40.00,19,10,33,0.05
2013-4-10,42.0,34.8,29.0,30.0,23.2,15.0,94,66,36,0.00,40.00,10,6,23,0.01
2013-4-11,54.0,38.3,18.0,35.0,20.6,13.0,91,55,24,0.00,40.00,11,5,21,0.03
2013-4-12,60.0,44.3,32.0,34.0,24.9,11.0,95,57,14,0.00,40.00,11,5,22,0.03
2013-4-13,65.0,48.3,27.0,25.0,16.1,9.0,65,33,13,0.00,40.00,13,7,35,0.00
2013-4-14,62.0,53.0,43.0,23.0,20.5,14.0,38,28,19,0.00,40.00,16,9,36,0.00
2013-4-15,67.0,53.2,38.0,24.0,18.7,12.0,50,28,12,0.00,40.00,15,8,30,0.00
2013-4-16,69.0,57.0,41.0,22.0,13.0,0.0,34,19,10,0.00,40.00,18,10,36,0.00
2013-4-17,56.0,41.4,28.0,31.0,18.1,0.0,95,47,10,0.00,40.00,13,6,24,0.01
2013-4-18,36.0,27.3,20.0,25.0,15.9,9.0,83,63,38,0.00,40.00,11,6,18,0.08
2013-4-19,54.0,34.9,11.0,11.0,4.4,1.0,70,34,11,0.00,40.00,13,5,24,0.02
2013-4-20,55.0,44.4,35.0,25.0,14.3,2.0,55,30,18,0.00,40.00,11,6,25,0.00
2013-4-21,66.0,45.6,26.0,27.0,15.1,-2.0,74,38,8,0.00,40.00,13,6,24,0.00
2013-4-22,70.0,53.4,32.0,19.0,11.8,4.0,40,21,10,0.00,40.00,15,7,33,0.00
2013-4-23,58.0,46.4,28.0,32.0,16.6,-7.0,66,34,8,0.00,40.00,17,8,30,0.00
2013-4-24,63.0,42.6,17.0,16.0,3.3,-6.0,51,25,7,0.00,40.00,12,5,20,0.00
2013-4-25,64.0,49.0,37.0,41.0,22.1,13.0,89,37,20,0.00,40.00,14,6,34,0.03
2013-4-26,64.0,49.0,39.0,41.0,32.8,22.0,96,60,21,0.00,40.00,11,5,22,0.06
2013-4-27,67.0,50.3,29.0,29.0,21.8,14.0,72,39,14,0.00,40.00,8,4,22,0.00
2013-4-28,74.0,54.8,33.0,21.0,10.9,0.0,46,22,6,0.00,40.00,9,5,17,0.00
2013-4-29,77.0,58.0,36.0,19.0,12.2,5.0,35,19,8,0.00,40.00,13,6,29,0.00
2013-4-30,78.0,63.3,42.0,22.0,12.6,6.0,31,15,8,0.00,40.00,13,7,30,0.00